Temperature
13 13 13 13 12 13 13 13 12 12 12 12 12 12 12 12 12 12 12 12 12 12 12 12 12 12 12 12 12 12 12 11 11 11 11 11 11 11
12 12 12 12 12 12 12 12 12 12 12 12 12 12 12 12 12 12 12 12 12 12 12 12 12 12 12 12 11 11 11 11 11 11 11 11 11 11
12 12 12 12 12 12 12 12 12 12 12 12 12 11 11 11 12 12 12 12 12 12 12 11 11 11 11 11 11 11 11 11 11 11 11 11 11 11
12 12 12 12 12 12 12 11 12 11 11 11 11 11 11 11 11 11 11 11 11 11 11 11 11 11 11 11 11 11 11 11 11 11 11 10 11 11
11 11 11 11 11 11 11 11 11 11 11 11 11 11 11 11 11 11 11 11 11 11 11 11 11 11 11 11 11 11 11 11 10 10 10 10 10 10
11 11 11 11 11 11 11 11 11 11 11 10 10 10 10 10 10 11 11 11 11 11 11 11 11 11 11 11 11 10 10 10 10 10 10 10 10 10
10 10 10 11 11 11 11 11 11 10 10 10 10 10 10 10 10 10 10 10 10 10 10 10 10 10 10 10 10 10 10 10 10 10 10 10 10 10
10 10 10 10 10 10 10 10 10 10 10 10 10 10 10 10 10 10 10 10 10 10 10 10 10 10 10 10 10 10 10 10 10 10 10 10 10 10
10 10 10 10 10 10 10 10 10 10 10 10 10 10 10 10 10 9 9 9 9 9 9 10 10 10 10 10 10 10 10 10 10 10 10 9 9 9
10 9 9 10 9 9 9 9 9 9 9 9 9 9 9 9 9 9 9 9 9 9 9 9 9 9 9 9 9 9 9 9 9 9 9 9 9 9
9 9 9 9 9 9 9 9 9 9 9 9 9 9 9 9 9 9 9 8 8 9 9 9 9 9 9 9 9 9 9 9 9 9 9 9 9 9
9 9 9 9 8 8 8 8 8 9 8 8 8 8 8 8 8 8 8 8 8 8 8 8 8 8 8 9 9 9 9 9 9 9 9 9 9 9
8 8 8 8 8 8 8 8 8 8 8 8 8 8 8 8 8 8 8 8 8 8 8 8 8 8 8 8 8 8 8 8 9 9 9 9 8 8
8 8 7 7 7 7 7 7 7 7 7 7 7 7 7 7 7 7 7 7 7 7 7 7 7 7 8 8 8 8 8 8 8 8 8 8 8 8
7 7 7 7 7 7 7 7 7 7 7 7 7 7 7 7 7 7 7 7 7 7 7 7 7 7 7 7 7 7 7 8 8 8 8 8 8 8
7 6 6 6 6 6 6 6 6 6 6 6 6 6 6 6 6 6 6 6 7 7 6 6 6 6 7 7 7 7 7 7 7 7 7 7 7 7
6 6 6 6 6 6 6 5 5 6 6 6 5 5 5 6 6 6 6 6 6 6 6 6 6 6 6 6 6 6 6 6 6 6 6 7 7 7
6 6 5 5 5 5 5 5 5 5 5 5 5 5 5 5 5 5 5 5 5 5 5 5 6 6 6 6 6 5 6 6 6 6 6 6 6 7
5 5 5 5 5 5 5 5 5 5 4 4 4 4 4 4 4 4 4 4 4 5 5 5 5 5 5 5 5 5 5 5 5 5 5 6 6 6
4 4 4 4 4 4 4 4 4 4 4 4 4 4 4 4 4 4 4 4 4 4 4 4 4 4 4 4 4 5 5 5 5 5 5 5 5 6
4 4 4 4 3 4 4 4 4 4 3 3 3 3 3 3 3 3 3 3 3 3 3 3 4 4 4 4 4 4 4 4 4 4 4 4 5 5
3 3 3 3 3 3 3 3 3 3 3 3 3 3 3 3 3 3 3 3 3 3 3 3 3 3 3 3 3 3 4 4 4 4 4 4 4 4
3 3 3 3 2 2 2 2 2 2 2 2 2 2 2 2 2 2 2 2 2 2 2 2 2 2 2 3 3 3 3 3 3 3 4 3 3 3
Wind_Speed
2 1 1 1 0 1 2 3 4 2 2 3 2 2 2 2 3 3 3 4 4 4 3 3 3 3 3 3 3 3 2 2 3 3 2 2 2 2
1 2 1 0 0 0 1 1 2 3 3 2 3 2 1 1 2 3 4 4 4 4 4 3 3 4 4 4 4 3 3 3 3 3 2 2 1 1
1 2 2 1 0 0 1 1 1 2 3 2 2 1 1 0 0 1 2 2 3 5 4 4 4 3 4 4 5 5 5 4 4 4 3 3 2 1
1 1 2 1 1 0 1 1 2 2 3 2 1 1 1 2 1 1 1 1 2 4 5 4 3 3 3 4 5 6 6 6 5 5 4 4 4 3
2 2 2 1 1 1 1 1 1 1 2 2 2 1 1 1 0 1 0 0 2 3 4 4 4 4 4 4 5 6 6 6 6 6 5 5 5 4
1 2 2 2 3 3 2 2 2 2 2 2 1 1 1 1 0 1 1 1 2 1 2 3 4 5 5 6 6 6 7 7 7 7 7 6 6 5
1 1 2 2 2 2 2 3 3 3 2 2 1 1 1 1 1 2 2 2 2 1 1 2 2 2 3 5 6 7 7 7 7 8 8 7 7 6
1 1 2 2 2 3 3 3 5 4 5 4 3 3 4 4 3 2 2 1 2 2 1 2 1 2 3 4 6 7 7 7 7 8 8 8 8 8
2 2 1 1 1 1 2 2 3 4 5 6 5 5 4 5 4 3 3 3 4 3 2 3 2 3 3 6 7 8 8 8 8 8 9 9 9 9
2 3 2 1 1 1 1 1 2 3 4 4 5 6 5 4 5 5 5 4 2 2 2 3 2 3 3 5 8 9 9 9 9 9 9 10 10 10
1 1 1 1 1 1 1 1 1 3 2 3 3 3 4 3 3 2 2 2 2 3 2 2 2 2 2 3 5 7 9 9 10 10 10 10 10 9
0 1 1 1 1 2 2 2 2 3 2 1 1 2 2 2 4 4 4 3 2 2 2 2 2 1 2 2 2 3 5 7 9 9 9 10 9 7
1 1 1 2 2 2 2 2 3 2 2 2 2 2 1 1 2 3 4 5 4 4 3 3 2 2 2 2 2 2 2 2 4 5 7 9 9 7
2 2 1 2 2 1 2 2 2 1 0 0 1 2 2 3 3 3 4 5 5 5 4 3 3 3 3 2 2 2 2 2 2 2 3 5 7 9
1 1 1 1 1 1 1 1 0 0 0 0 1 3 3 3 2 2 2 3 2 2 2 3 2 2 3 3 3 2 2 2 2 2 2 3 3 3
1 1 1 1 1 1 1 1 0 1 1 2 2 2 1 1 1 1 1 1 1 2 2 3 4 3 3 3 3 2 2 2 2 3 3 3 4 5
0 1 1 1 1 1 1 1 1 1 1 1 1 1 1 1 1 1 1 1 2 2 2 1 2 3 4 3 3 3 3 2 3 3 2 3 4 6
2 1 1 1 1 1 1 1 1 1 2 1 1 1 1 1 2 1 0 1 2 2 2 2 1 1 1 2 4 3 3 3 3 3 2 3 5 5
2 1 2 2 2 2 2 2 2 2 1 1 1 1 1 1 1 1 1 2 2 3 2 2 1 2 3 4 3 4 4 3 2 2 3 4 5 6
1 2 2 2 2 2 2 2 2 1 1 1 1 1 1 1 1 2 2 3 3 3 3 2 2 3 5 5 3 3 5 4 3 3 3 3 4 5
2 2 2 2 2 2 2 2 1 1 1 1 1 2 2 2 2 2 3 4 3 3 4 4 5 5 3 1 1 2 3 5 5 3 3 3 3 2
2 2 2 2 2 2 2 2 1 1 1 1 1 2 2 2 3 4 3 3 3 4 5 4 3 1 1 3 4 4 3 3 5 5 5 4 3 3
2 2 2 2 2 2 2 2 2 2 2 2 2 2 2 2 3 3 3 3 3 3 3 3 2 2 3 3 4 4 4 3 2 2 4 6 7 7
Wind_Direction
184 169 180 242 197 192 176 165 160 188 252 268 280 288 263 213 212 196 205 207 207 208 206 210 211 205 207 208 204 187 181 172 175 159 134 105 89 86
177 149 173 251 57 133 163 169 162 171 210 238 239 257 259 235 233 206 216 219 219 209 211 221 222 227 223 213 193 189 192 190 177 176 182 163 147 123
213 168 210 199 158 245 150 141 153 154 188 252 257 266 192 241 314 215 230 217 227 221 221 224 222 219 215 210 202 198 195 193 192 194 200 199 192 195
232 206 224 197 167 194 150 161 184 179 175 208 259 287 260 231 212 196 209 216 222 222 215 215 214 218 219 212 208 205 202 202 204 204 206 206 206 217
226 219 232 188 204 200 174 190 192 177 161 174 227 254 273 278 317 262 271 319 241 236 226 229 229 229 228 222 211 209 207 207 207 208 212 215 215 225
234 224 224 207 215 199 192 194 183 160 153 160 206 249 263 270 204 213 264 269 268 256 242 239 240 240 240 232 217 211 212 214 213 215 219 222 225 232
239 259 248 232 236 206 201 192 178 176 175 179 208 234 253 243 232 223 228 248 265 238 257 254 236 247 251 238 221 219 218 217 219 221 223 224 230 237
217 266 267 261 252 230 217 188 180 186 193 193 212 220 236 230 222 222 213 195 263 258 209 254 190 225 240 233 229 224 223 227 225 221 225 229 232 237
213 228 261 268 230 237 240 227 212 203 192 192 201 222 225 223 207 212 213 206 226 232 184 245 234 237 240 231 226 226 227 231 235 231 229 233 236 237
216 211 211 257 254 193 207 234 243 244 230 214 209 222 223 216 208 208 211 223 249 245 182 226 233 238 248 241 231 225 230 234 238 240 235 234 235 238
223 197 196 217 253 199 169 234 272 281 268 236 233 238 236 220 185 167 173 187 251 254 216 212 230 238 251 246 243 234 235 239 240 240 238 236 234 235
299 282 249 259 253 204 187 198 241 264 270 275 291 301 274 238 200 190 191 195 220 246 229 202 216 186 266 263 249 253 243 242 239 240 241 239 236 226
237 277 281 278 275 240 196 204 236 237 222 228 248 266 269 255 236 225 204 194 204 233 222 188 206 197 209 256 273 245 233 252 250 247 243 238 230 215
218 242 268 283 268 238 208 240 261 235 174 212 252 258 254 256 253 246 238 226 222 227 220 197 204 205 204 226 258 263 252 259 246 241 251 248 237 231
221 245 283 309 292 275 266 256 244 186 196 241 260 264 254 249 251 255 264 262 264 259 224 208 206 211 202 216 228 233 252 258 232 229 234 233 232 229
301 311 323 329 345 340 348 342 322 190 195 236 255 268 291 282 267 252 245 254 247 278 278 258 233 207 219 227 214 231 225 233 245 243 239 244 249 240
195 51 25 10 4 350 351 331 311 300 259 269 260 287 309 293 279 270 239 207 225 250 267 272 277 246 223 204 213 231 234 249 247 232 231 251 250 241
124 151 231 242 238 254 261 283 288 267 258 242 233 245 271 279 280 279 255 228 245 260 258 245 237 334 313 274 219 217 231 246 257 237 221 238 257 256
139 213 235 240 245 242 242 243 253 256 240 220 229 248 264 270 277 273 257 249 258 262 264 254 215 202 239 260 262 221 220 244 246 243 234 232 251 261
196 220 236 248 256 252 248 248 251 258 245 231 237 252 259 261 264 270 262 256 258 262 270 271 239 226 234 243 246 260 238 222 223 243 252 254 262 276
221 231 239 245 256 262 263 261 251 252 264 254 249 251 254 252 262 267 271 278 264 256 261 260 255 259 244 205 256 271 269 247 234 232 234 248 272 279
226 234 249 250 247 248 250 252 257 260 268 269 269 274 270 252 260 267 267 267 260 257 257 261 270 250 207 221 246 261 273 288 279 267 246 225 217 234
239 237 242 248 245 240 240 242 246 256 251 258 271 275 274 273 273 270 269 261 259 265 274 269 259 229 232 235 244 254 265 275 280 279 274 278 269 272
Height
1519 1519 1519 1519 1520 1520 1520 1521 1522 1521 1521 1522 1522 1522 1522 1523 1523 1523 1523 1523 1523 1523 1523 1523 1523 1523 1523 1523 1524 1523 1524 1524 1524 1524 1524 1524 1524 1524
1516 1516 1516 1517 1517 1517 1518 1518 1519 1519 1519 1519 1520 1520 1520 1520 1520 1520 1521 1521 1521 1521 1521 1521 1521 1522 1522 1522 1522 1522 1522 1522 1522 1523 1523 1523 1523 1523
1514 1514 1514 1514 1514 1515 1515 1516 1516 1517 1516 1517 1517 1518 1518 1518 1518 1518 1518 1518 1518 1518 1519 1519 1519 1519 1519 1519 1520 1520 1520 1521 1521 1521 1522 1522 1522 1522
1511 1511 1511 1511 1511 1512 1513 1513 1513 1514 1514 1514 1514 1515 1515 1515 1515 1515 1515 1515 1516 1516 1516 1516 1516 1516 1517 1517 1517 1518 1518 1519 1519 1520 1520 1520 1520 1520
1509 1508 1508 1508 1508 1509 1509 1510 1510 1511 1511 1511 1511 1512 1512 1512 1512 1512 1513 1513 1513 1513 1513 1513 1513 1513 1513 1514 1514 1515 1516 1516 1517 1518 1518 1518 1519 1519
1506 1506 1506 1505 1506 1506 1506 1507 1507 1508 1508 1508 1508 1509 1509 1509 1509 1509 1509 1510 1510 1511 1510 1510 1510 1510 1510 1509 1510 1512 1513 1514 1515 1516 1516 1517 1517 1517
1503 1503 1503 1503 1502 1503 1503 1503 1504 1505 1505 1505 1505 1506 1506 1506 1506 1506 1507 1507 1507 1508 1508 1508 1507 1507 1507 1506 1507 1509 1510 1511 1512 1513 1514 1514 1514 1515
1500 1500 1499 1499 1499 1500 1500 1500 1501 1502 1502 1502 1502 1502 1502 1503 1503 1504 1504 1504 1504 1505 1505 1505 1505 1504 1504 1505 1506 1507 1508 1509 1510 1510 1511 1512 1512 1512
1496 1496 1496 1496 1496 1496 1496 1497 1498 1498 1499 1499 1499 1499 1499 1500 1500 1500 1500 1500 1500 1502 1502 1501 1502 1501 1502 1503 1504 1504 1505 1506 1507 1507 1508 1509 1509 1509
1493 1492 1492 1492 1492 1493 1493 1493 1494 1494 1495 1495 1496 1496 1496 1497 1497 1497 1497 1497 1498 1498 1499 1498 1498 1498 1499 1499 1500 1501 1502 1503 1504 1504 1505 1505 1506 1506
1489 1489 1489 1489 1489 1489 1489 1489 1490 1490 1491 1491 1492 1492 1492 1492 1493 1493 1493 1493 1493 1494 1494 1494 1494 1494 1495 1496 1497 1498 1498 1499 1500 1500 1501 1502 1502 1502
1486 1486 1486 1486 1486 1486 1486 1486 1486 1486 1487 1487 1487 1487 1487 1488 1488 1489 1489 1489 1489 1489 1490 1490 1490 1491 1491 1491 1493 1493 1494 1495 1496 1496 1496 1497 1498 1498
1483 1482 1483 1483 1483 1483 1483 1483 1483 1483 1483 1483 1483 1483 1483 1483 1484 1484 1485 1486 1486 1486 1487 1487 1487 1487 1488 1487 1488 1489 1490 1490 1491 1491 1492 1492 1493 1493
1479 1479 1480 1480 1479 1479 1479 1479 1480 1479 1479 1478 1478 1478 1478 1479 1479 1480 1481 1482 1482 1482 1483 1483 1483 1483 1483 1483 1483 1484 1485 1485 1486 1486 1487 1487 1488 1488
1477 1477 1477 1477 1476 1476 1476 1476 1476 1475 1475 1474 1474 1474 1475 1475 1475 1476 1477 1477 1478 1478 1478 1478 1479 1479 1479 1479 1479 1480 1480 1480 1481 1481 1482 1482 1482 1482
1474 1474 1474 1474 1473 1473 1473 1472 1472 1472 1472 1471 1471 1471 1471 1471 1471 1471 1472 1472 1472 1472 1473 1474 1474 1475 1475 1475 1475 1475 1476 1476 1476 1477 1477 1477 1477 1477
1471 1471 1471 1470 1470 1469 1469 1469 1469 1469 1469 1468 1468 1468 1467 1467 1467 1467 1468 1468 1467 1467 1468 1469 1470 1470 1470 1471 1470 1471 1471 1471 1472 1472 1472 1472 1472 1472
1468 1468 1467 1467 1466 1466 1466 1465 1465 1465 1465 1465 1465 1464 1464 1463 1463 1463 1463 1463 1463 1463 1463 1464 1465 1465 1465 1465 1466 1466 1466 1466 1467 1467 1467 1466 1466 1467
1465 1464 1464 1464 1463 1463 1463 1462 1462 1462 1462 1462 1461 1461 1460 1460 1459 1459 1459 1459 1458 1459 1459 1459 1460 1460 1459 1459 1460 1462 1462 1462 1462 1462 1461 1461 1461 1461
1461 1461 1461 1461 1461 1460 1460 1459 1459 1459 1459 1458 1458 1458 1457 1456 1456 1455 1455 1455 1455 1455 1455 1455 1455 1455 1455 1455 1456 1457 1458 1457 1457 1456 1456 1456 1456 1456
1458 1458 1458 1458 1458 1457 1457 1457 1456 1456 1455 1455 1455 1454 1454 1453 1452 1452 1452 1451 1451 1451 1450 1450 1450 1452 1452 1452 1452 1451 1452 1453 1452 1452 1451 1451 1450 1449
1454 1454 1454 1454 1454 1454 1454 1453 1453 1452 1452 1451 1451 1451 1450 1450 1449 1448 1448 1447 1447 1447 1446 1446 1447 1447 1447 1447 1446 1446 1447 1447 1448 1448 1447 1447 1445 1444
1451 1451 1451 1451 1450 1450 1450 1450 1449 1449 1448 1448 1447 1447 1446 1446 1445 1444 1444 1443 1443 1442 1442 1442 1442 1442 1442 1442 1442 1442 1442 1442 1442 1442 1442 1442 1442 1441